Simultaneous Nadir Overpasses (SNOs) Predictions

Prediction of SNOs between GOES-15 and TERRA Satellite Orbit:

Table of predicted SNOs for the next 14.0 days since TLE Epoch: 1/29/2022
Index Date Time (GOES-15) GOES-15 Lat,Lon TERRA Lat,Lon Distance(km) Time Diff (sec)
1 01/29/2022 18:53:02 -0.00,-128.33 -0.09,-127.82 57.28 80
2 01/31/2022 18:40:48 -0.01,-128.31 -0.72,-124.87 390.61 80
3 02/01/2022 07:04:52 -0.00,-128.27 -0.36,-130.07 203.22 80
4 02/03/2022 06:52:37 -0.03,-128.25 0.22,-127.10 130.93 80
5 02/03/2022 19:11:12 0.02,-128.27 0.86,-132.26 453.45 80
6 02/05/2022 06:40:23 -0.02,-128.23 0.87,-124.15 464.50 80
7 02/05/2022 18:58:58 0.02,-128.25 0.22,-129.31 119.96 80
8 02/07/2022 18:49:23 0.02,-128.22 -0.37,-126.34 213.29 80
9 02/08/2022 07:08:06 -0.02,-128.19 -0.76,-131.53 380.78 80
10 02/10/2022 06:55:52 -0.00,-128.15 -0.10,-128.58 48.63 80
